[[{"header":{"parameterUnit":"m.s-1","parameterCategory":2,"la1":30.2991,"la2":30.254,"lo1":-89.0895,"lo2":-89.0444,"dy":0.0017,"dx":0.0017,"nx":28,"ny":28,"refTime":"2024-08-05T21:00:00:Z","depth":"0","parameterNumber":2,"parameterNumberName":"U-component_of_CURRENTS"},"data":[0,0,0,0,0,0,0,0,0,0,0,0,0,0,0,0,0,0,0,0,0,0,0,0,0,0,0,0,0,0,0,0,0,0,0,0,0,0,0,0,0,0,0,0,0,0,0,0,0,0,0,0,0,0,0,0,0,0,0.3993,0.3995,0,0.402,0.4019,0.4018,0.3955,0.3954,0.3953,0.3953,0.3774,0.377,0.3766,0,0,0,0,0,0,0,0,0,0,0,0,0,0.377,0.3774,0.3993,0.3995,0.3997,0.4021,0.4019,0.4018,0.3955,0.3954,0.3953,0.3953,0.3775,0.377,0.3765,0,0,0,0,0,0,0,0,0,0,0,0,0,0.3825,0.3775,0.3993,0.3979,0.3979,0.4021,0.4019,0.4018,0.3955,0.3954,0.3953,0.3952,0.3777,0.3771,0.3764,0.3744,0,0,0.3745,0.3742,0,0,0,0,0,0,0,0,0.3822,0.3831,0.3979,0.398,0.3981,0.3997,0.3876,0.3921,0.3955,0.3948,0.3953,0.3952,0.384,0.3829,0.3816,0.3735,0.3727,0.3745,0.3741,0.3738,0.3736,0,0,0,0,0,0,0,0.3818,0.3829,0.3988,0.3982,0.3983,0.3934,0.3939,0.3883,0.3883,0.3948,0.3948,0.3976,0.3837,0.3823,0.3811,0.3725,0.3745,0.3739,0.3735,0.3733,0.3727,0.3731,0,0,0,0,0,0,0.3854,0.3827,0.3987,0.399,0.3915,0.394,0.3946,0.398,0.3888,0.3879,0.3977,0.3973,0.3834,0.3819,0.3805,0.3786,0.3738,0.3732,0.3729,0.3724,0.3728,0.3732,0,0,0,0,0,0,0.3849,0.3869,0.3987,0.392,0.3934,0.3947,0.3984,0.3981,0.3972,0.3915,0.3898,0.3974,0.3833,0.3814,0.3794,0.3778,0.3729,0.3724,0.3719,0.3725,0.373,0.374,0,0,0,0,0,0,0.3843,0.3866,0.3884,0.3924,0.394,0.401,0.3987,0.3983,0.3999,0.3993,0.3906,0.3889,0.383,0.3804,0.3788,0.3768,0.3719,0.3715,0.3722,0.3728,0.3735,0.3745,0.3754,0,0,0,0,0,0.3835,0.3878,0.3885,0.3904,0.3971,0.4012,0.4013,0.4007,0.4,0.3993,0.3969,0.3892,0.3836,0.3802,0.3781,0.3759,0.3711,0.372,0.3728,0.3731,0.3743,0.3753,0,0,0,0,0,0,0.3773,0.3878,0.3886,0.3953,0.398,0.4007,0.402,0.4018,0.3993,0.3988,0.392,0.3902,0.388,0.385,0.3814,0.3796,0.3768,0.3772,0.3777,0.3788,0.3797,0.3816,0.3713,0,0,0,0,0,0.3779,0.3844,0.3909,0.3954,0.3981,0.3999,0.4013,0.4013,0.4015,0.4003,0.3954,0.3925,0.39,0.3869,0.384,0.3814,0.3805,0.3805,0.3814,0.3821,0.3835,0.3839,0.3848,0.3759,0.3759,0.3759,0,0,0.3769,0.3836,0.3869,0.3946,0.397,0.4003,0.4,0.4034,0.4041,0.3986,0.3968,0.3943,0.3909,0.3888,0.3875,0.3852,0.3845,0.3831,0.3836,0.3847,0.3849,0.3856,0.3863,0.3764,0.3763,0.3763,0,0,0.3789,0.3843,0.3901,0.3932,0.3995,0.4008,0.4025,0.4056,0.4047,0.4048,0.4021,0.4015,0.3958,0.3938,0.3921,0.3977,0.3899,0.3961,0.3994,0.3998,0.4004,0.4009,0.4,0.4004,0.3957,0.3957,0.3957,0,0.3772,0.3846,0.3912,0.3964,0.3983,0.4017,0.4041,0.4053,0.4063,0.4051,0.405,0.4017,0.3988,0.3966,0.4003,0.3986,0.3975,0.3932,0.4003,0.4008,0.4012,0.4003,0.4007,0.3958,0.3958,0.3958,0.3958,0,0.3826,0.3873,0.391,0.3987,0.4008,0.4039,0.4078,0.408,0.4082,0.4082,0.4071,0.4061,0.4039,0.4037,0.4033,0.4048,0.4025,0.401,0.3953,0.402,0.4008,0.4012,0.396,0.396,0.3959,0.3959,0,0,0.3813,0.3928,0.3931,0.3945,0.4016,0.403,0.4059,0.4074,0.4065,0.4085,0.4064,0.4085,0.4081,0.4073,0.4058,0.4078,0.4111,0.4066,0.4065,0.4022,0.4106,0.393,0.3916,0.4089,0.409,0.4091,0.4079,0,0.382,0.3903,0.3951,0.3975,0.401,0.4032,0.4038,0.4051,0.4059,0.4048,0.4067,0.4055,0.4092,0.4075,0.4108,0.4106,0.4125,0.4116,0.4082,0.4081,0.3884,0.3916,0.3685,0.364,0.4082,0.4083,0.4083,0,0.3847,0.3893,0.3935,0.3954,0.3965,0.397,0.3958,0.3971,0.3986,0.3992,0.4011,0.4021,0.4066,0.4085,0.4134,0.412,0.4134,0.414,0.4138,0.3973,0.3911,0.3653,0.363,0.3589,0.4089,0.4088,0.4088,0,0.3798,0.3863,0.3883,0.3898,0.3941,0.3926,0.3928,0.3941,0.3934,0.3962,0.3953,0.4004,0.4009,0.4065,0.4111,0.4122,0.4141,0.4144,0.3997,0.3985,0.3783,0.3748,0.3682,0.4182,0.4182,0.4182,0.4182,0,0.3796,0.3801,0.3855,0.3865,0.3833,0.3875,0.3837,0.3854,0.3865,0.3847,0.3919,0.3923,0.4009,0.4029,0.4089,0.4039,0.4124,0.4005,0.3968,0.378,0.3748,0.3699,0.3678,0.4182,0.4182,0.4182,0.4182,0,0.3755,0.3806,0.3812,0.3831,0.3823,0.3796,0.3783,0.3755,0.379,0.3771,0.3784,0.3857,0.3879,0.3925,0.3986,0.3963,0.3831,0.3928,0.3692,0.3625,0.3412,0.34,0.3165,0.3086,0.3752,0.3748,0.3744,0,0.3746,0.3757,0.3764,0.3741,0.3744,0.3715,0.3682,0.3713,0.3699,0.3735,0.3718,0.3739,0.372,0.3711,0.3679,0.3663,0.3651,0.3435,0.3417,0.3359,0.3321,0.3247,0.3197,0.3169,0.3161,0.3154,0.3149,0,0.3693,0.3698,0.3699,0.3667,0.3628,0.3581,0.3553,0.3537,0.3568,0.3547,0.353,0.3517,0.3472,0.3327,0.3275,0.3269,0.3225,0.3291,0.3298,0.2902,0.2751,0.267,0.3236,0.3089,0.3095,0.3099,0.3102,0.3105,0.3621,0.361,0.3609,0.3553,0.3512,0.3436,0.3338,0.3327,0.3273,0.3176,0.331,0.3169,0.3065,0.2941,0.2913,0.2706,0.2797,0.2628,0.2635,0.2582,0.2432,0.285,0.2613,0.2616,0.2619,0.2621,0.2623,0,0.3506,0.3517,0.3481,0.3402,0.3284,0.3304,0.3219,0.3088,0.2953,0.2923,0.285,0.2654,0.2482,0.2414,0.2205,0.2088,0.2055,0.2056,0.1952,0.1955,0.238,0.2283,0.1879,0.1879,0.1879,0.188,0.188,0.188,0.3449,0.3392,0.3378,0.3174,0.3098,0.2879,0.2785,0.2639,0.2564,0.2312,0.214,0.2103,0.2067,0.1901,0.1733,0.1694,0.1647,0.1474,0.1616,0.1981,0.2038,0.2093,0.2003,0.1547,0.1546,0.1094,0.1091,0.1088]},{"header":{"parameterUnit":"m.s-1","parameterCategory":2,"la1":30.2991,"la2":30.254,"lo1":-89.0895,"lo2":-89.0444,"dy":0.0017,"dx":0.0017,"nx":28,"ny":28,"refTime":"2024-08-05T21:00:00:Z","depth":"0","parameterNumber":3,"parameterNumberName":"V-component_of_CURRENTS"},"data":[0,0,0,0,0,0,0,0,0,0,0,0,0,0,0,0,0,0,0,0,0,0,0,0,0,0,0,0,0,0,0,0,0,0,0,0,0,0,0,0,0,0,0,0,0,0,0,0,0,0,0,0,0,0,0,0,0,0,-0.0668,-0.0667,0,-0.06,-0.0599,-0.0598,-0.0571,-0.0571,-0.0572,-0.0572,-0.0445,-0.0441,-0.0438,0,0,0,0,0,0,0,0,0,0,0,0,0,-0.0642,-0.0644,-0.0668,-0.0667,-0.0666,-0.06,-0.0599,-0.0598,-0.0571,-0.0571,-0.0572,-0.0572,-0.0446,-0.0442,-0.0437,0,0,0,0,0,0,0,0,0,0,0,0,0,-0.0621,-0.0644,-0.0668,-0.0646,-0.0644,-0.06,-0.0599,-0.0597,-0.0571,-0.0571,-0.0572,-0.0572,-0.0448,-0.0442,-0.0437,-0.0394,0,0,-0.042,-0.0418,0,0,0,0,0,0,0,0,-0.0622,-0.0622,-0.065,-0.0648,-0.0645,-0.0595,-0.0543,-0.0527,-0.0571,-0.0597,-0.0572,-0.0573,-0.049,-0.0481,-0.0466,-0.0388,-0.0382,-0.0419,-0.0416,-0.0414,-0.0412,0,0,0,0,0,0,0,-0.0624,-0.0624,-0.064,-0.0649,-0.0646,-0.0594,-0.0593,-0.0539,-0.054,-0.0595,-0.0593,-0.0587,-0.0488,-0.0472,-0.0463,-0.038,-0.042,-0.0415,-0.0411,-0.0409,-0.0319,-0.032,0,0,0,0,0,0,-0.0642,-0.0626,-0.0642,-0.0638,-0.0636,-0.0595,-0.0593,-0.061,-0.0542,-0.0533,-0.0587,-0.0587,-0.0481,-0.047,-0.0458,-0.0418,-0.0414,-0.0409,-0.0406,-0.0318,-0.0319,-0.032,0,0,0,0,0,0,-0.0642,-0.0645,-0.0644,-0.0629,-0.0626,-0.0596,-0.0614,-0.0608,-0.0592,-0.0537,-0.0526,-0.0578,-0.0481,-0.0466,-0.0435,-0.0412,-0.0406,-0.0401,-0.0317,-0.0319,-0.032,-0.0326,0,0,0,0,0,0,-0.0642,-0.0646,-0.066,-0.0632,-0.0628,-0.0616,-0.0613,-0.0607,-0.0589,-0.0587,-0.0525,-0.0514,-0.048,-0.0444,-0.043,-0.0404,-0.0397,-0.0316,-0.0318,-0.032,-0.0325,-0.0328,-0.033,0,0,0,0,0,-0.0641,-0.0656,-0.0662,-0.0663,-0.0651,-0.0615,-0.0608,-0.0586,-0.0588,-0.0574,-0.0557,-0.0516,-0.0445,-0.044,-0.0423,-0.0395,-0.0315,-0.0317,-0.0319,-0.0324,-0.0327,-0.033,0,0,0,0,0,0,-0.0643,-0.0654,-0.066,-0.0677,-0.0649,-0.0611,-0.0599,-0.0586,-0.056,-0.0562,-0.0519,-0.0506,-0.0471,-0.0444,-0.044,-0.0382,-0.0375,-0.0374,-0.0384,-0.0387,-0.0389,-0.0348,-0.0392,0,0,0,0,0,-0.0656,-0.0675,-0.0661,-0.0669,-0.0662,-0.0632,-0.0616,-0.06,-0.0574,-0.0563,-0.052,-0.0491,-0.0465,-0.0438,-0.0406,-0.0362,-0.0322,-0.0341,-0.0344,-0.0346,-0.0306,-0.025,-0.0242,-0.0327,-0.0327,-0.0327,0,0,-0.0645,-0.0664,-0.0666,-0.0671,-0.0652,-0.0624,-0.0623,-0.0598,-0.0565,-0.055,-0.0499,-0.0491,-0.0461,-0.0424,-0.0405,-0.0396,-0.031,-0.0348,-0.035,-0.0307,-0.0251,-0.0242,-0.0234,-0.0329,-0.0328,-0.0328,0,0,-0.0626,-0.0666,-0.0662,-0.0654,-0.0639,-0.0619,-0.0614,-0.0577,-0.0556,-0.0514,-0.051,-0.049,-0.0432,-0.0407,-0.039,-0.0385,-0.0331,-0.0388,-0.0348,-0.0296,-0.0287,-0.0279,-0.0249,-0.0238,-0.0382,-0.0382,-0.0382,0,-0.0617,-0.0626,-0.0646,-0.0641,-0.0629,-0.0618,-0.0588,-0.0561,-0.0513,-0.0485,-0.0498,-0.0428,-0.0414,-0.0362,-0.0378,-0.0381,-0.0354,-0.0336,-0.0295,-0.0286,-0.0276,-0.0248,-0.0235,-0.0383,-0.0383,-0.0382,-0.0382,0,-0.0575,-0.0594,-0.0591,-0.0591,-0.0574,-0.0554,-0.0527,-0.0498,-0.0481,-0.0443,-0.0391,-0.0381,-0.033,-0.0345,-0.0356,-0.0295,-0.0301,-0.0309,-0.0277,-0.0267,-0.024,-0.0226,-0.0383,-0.0383,-0.0383,-0.0383,0,0,-0.0534,-0.0558,-0.0557,-0.0558,-0.0555,-0.053,-0.049,-0.0435,-0.0387,-0.0354,-0.0278,-0.0273,-0.026,-0.0241,-0.0255,-0.0223,-0.0173,-0.0241,-0.0238,-0.0193,-0.0068,-0.0083,-0.007,-0.0173,-0.017,-0.0168,-0.0085,0,-0.0494,-0.0482,-0.0498,-0.0469,-0.0462,-0.046,-0.0415,-0.0369,-0.0327,-0.025,-0.023,-0.017,-0.0221,-0.0201,-0.0176,-0.0162,-0.0132,-0.0195,-0.0098,-0.0094,-0.0093,-0.0052,-0.0051,0.0024,-0.0071,-0.0069,-0.0067,0,-0.0455,-0.0455,-0.0423,-0.0429,-0.0419,-0.0391,-0.0328,-0.0286,-0.0197,-0.0161,-0.01,-0.0068,-0.0011,-0.0063,0.0002,-0.0036,-0.0043,-0.0045,-0.0042,-0.0028,-0.0082,0.0003,0.0052,-0.0009,-0.0046,-0.0048,-0.0049,0,-0.0425,-0.0417,-0.0393,-0.0393,-0.0372,-0.0347,-0.0324,-0.0252,-0.0185,-0.0091,-0.0018,0.0043,0.0112,0.0113,0.0114,0.0065,0.019,0.0122,0.0104,0.0101,0.0141,0.0138,0.0169,0.0181,0.0181,0.0181,0.0181,0,-0.0409,-0.04,-0.0376,-0.0366,-0.0304,-0.0316,-0.023,-0.0195,-0.0101,0.0021,0.0036,0.0159,0.0165,0.0236,0.0185,0.021,0.0254,0.0145,0.0141,0.013,0.0125,0.0104,0.0061,0.0184,0.0183,0.0183,0.0182,0,-0.0407,-0.0397,-0.0363,-0.032,-0.0297,-0.0252,-0.0171,-0.0088,-0.0037,0.0128,0.0172,0.0291,0.038,0.037,0.0407,0.033,0.03,0.0315,0.0292,0.0283,0.0162,0.0118,0.0197,0.0174,0.03,0.03,0.03,0,-0.0409,-0.0389,-0.0312,-0.0251,-0.0231,-0.0165,-0.0088,-0.0043,0.0059,0.0228,0.0339,0.0463,0.0594,0.0623,0.0527,0.0463,0.0377,0.0381,0.0281,0.0193,0.0141,0.011,0.0082,0.0316,0.0316,0.0317,0.0317,0,-0.0384,-0.0349,-0.0299,-0.0174,-0.0087,0.0009,0.0107,0.0196,0.0294,0.0424,0.0629,0.0733,0.0767,0.075,0.0634,0.0548,0.0337,0.0384,0.0323,0.0199,0.0146,0.0107,0.0199,0.032,0.032,0.032,0.032,0.0319,-0.0334,-0.0281,-0.0183,-0.0068,0.0049,0.0199,0.0282,0.0407,0.0575,0.078,0.0846,0.1001,0.0911,0.0768,0.0644,0.0392,0.0385,0.0285,0.0251,0.0237,0.0188,0.0273,0.0363,0.0363,0.0363,0.0363,0.0363,0,-0.0223,-0.0169,-0.0071,0.009,0.0241,0.0269,0.0445,0.0537,0.0743,0.0926,0.1082,0.1125,0.0995,0.0792,0.0476,0.0295,0.021,0.0196,0.0154,0.0137,0.0251,0.0221,0.0248,0.0249,0.0249,0.0249,0.0249,0.0249,-0.015,-0.0033,0.0005,0.025,0.0359,0.053,0.0628,0.0766,0.0895,0.1109,0.1206,0.1266,0.114,0.0647,0.0298,0.0195,0.0074,0.0054,0.0007,0.0062,0.0067,0.0072,0.0034,0.0022,0.0021,-0.0094,-0.0095,-0.0096]}],[{"header":{"parameterUnit":"m.s-1","parameterCategory":2,"la1":30.2991,"la2":30.254,"lo1":-89.0895,"lo2":-89.0444,"dy":0.0017,"dx":0.0017,"nx":28,"ny":28,"refTime":"2024-08-05T21:00:00:Z","depth":"2","parameterNumber":2,"parameterNumberName":"U-component_of_CURRENTS"},"data":[0,0,0,0,0,0,0,0,0,0,0,0,0,0,0,0,0,0,0,0,0,0,0,0,0,0,0,0,0,0,0,0,0,0,0,0,0,0,0,0,0,0,0,0,0,0,0,0,0,0,0,0,0,0,0,0,0,0,0.247,0.2471,0,0.2562,0.2563,0.2563,0.2344,0.2337,0.2331,0.2325,0.2253,0.2256,0.226,0,0,0,0,0,0,0,0,0,0,0,0,0,0.2322,0.2324,0.247,0.2472,0.2473,0.2562,0.2563,0.2563,0.2345,0.2337,0.2329,0.2322,0.2251,0.2256,0.2261,0,0,0,0,0,0,0,0,0,0,0,0,0,0.2391,0.2324,0.2469,0.238,0.2373,0.2562,0.2563,0.2563,0.2346,0.2337,0.2327,0.2318,0.225,0.2255,0.2261,0.249,0,0,0.228,0.2282,0,0,0,0,0,0,0,0,0.2387,0.2395,0.2391,0.2386,0.2379,0.2437,0.2484,0.2533,0.2349,0.235,0.2325,0.2313,0.2311,0.2311,0.2343,0.2487,0.2484,0.228,0.2284,0.2287,0.2288,0,0,0,0,0,0,0,0.2382,0.2392,0.2499,0.2394,0.2387,0.241,0.2406,0.2494,0.2375,0.2349,0.2335,0.2359,0.2303,0.2338,0.2339,0.2483,0.228,0.2286,0.2289,0.2292,0.2502,0.2503,0,0,0,0,0,0,0.2384,0.2387,0.2497,0.2503,0.2367,0.242,0.2416,0.2423,0.2377,0.2364,0.2367,0.2348,0.2332,0.2332,0.2335,0.2408,0.2287,0.2292,0.2296,0.25,0.2502,0.2504,0,0,0,0,0,0,0.238,0.2392,0.2493,0.2452,0.2467,0.2431,0.2443,0.243,0.244,0.2393,0.2373,0.2385,0.2324,0.2327,0.2364,0.241,0.2295,0.23,0.2497,0.25,0.2503,0.2679,0,0,0,0,0,0,0.2375,0.239,0.2418,0.2453,0.247,0.254,0.2452,0.2439,0.2474,0.2449,0.2407,0.2389,0.2317,0.2356,0.237,0.2416,0.2305,0.2495,0.2499,0.2502,0.2671,0.2688,0.2702,0,0,0,0,0,0.237,0.2402,0.2418,0.2433,0.25,0.2541,0.255,0.2491,0.2485,0.2471,0.2455,0.2389,0.2385,0.2366,0.2381,0.2429,0.2493,0.2498,0.2502,0.2664,0.2685,0.2702,0,0,0,0,0,0,0.2317,0.2387,0.2402,0.2446,0.2478,0.2503,0.2528,0.2537,0.2536,0.2525,0.2468,0.2452,0.2484,0.2458,0.2437,0.249,0.2413,0.2421,0.253,0.255,0.2565,0.2557,0.231,0,0,0,0,0,0.2347,0.2405,0.2449,0.2492,0.2517,0.2558,0.2588,0.2564,0.2574,0.2563,0.2551,0.2535,0.2538,0.2537,0.2527,0.2628,0.2591,0.2647,0.2663,0.2677,0.2677,0.2672,0.2687,0.2519,0.2519,0.2519,0,0,0.2349,0.2398,0.2431,0.2493,0.253,0.2578,0.2544,0.2594,0.2624,0.2573,0.2618,0.2612,0.2575,0.2615,0.2628,0.259,0.2713,0.2683,0.2695,0.2687,0.2678,0.2694,0.2709,0.2522,0.2521,0.2521,0,0,0.2378,0.2423,0.248,0.2524,0.2598,0.2619,0.2643,0.2698,0.2687,0.2771,0.2717,0.2744,0.2779,0.2743,0.2735,0.2862,0.2796,0.2854,0.2942,0.2939,0.2953,0.2965,0.2975,0.2985,0.2862,0.2863,0.2863,0,0.2381,0.2452,0.2498,0.2562,0.2596,0.2642,0.2685,0.2729,0.2784,0.2798,0.2767,0.2843,0.2827,0.2875,0.2892,0.2899,0.2887,0.2881,0.2962,0.2972,0.2981,0.2987,0.2997,0.2872,0.2871,0.287,0.2869,0,0.2443,0.2513,0.255,0.2645,0.2676,0.2732,0.2781,0.2828,0.2862,0.2893,0.2955,0.2972,0.2976,0.3008,0.2999,0.3069,0.304,0.2986,0.2919,0.3009,0.301,0.3017,0.2885,0.2881,0.2879,0.2876,0,0,0.2422,0.2566,0.2582,0.263,0.2725,0.2748,0.282,0.2869,0.2921,0.2988,0.304,0.3102,0.3116,0.311,0.3124,0.3167,0.3255,0.3126,0.3121,0.3146,0.3267,0.3052,0.3038,0.322,0.3222,0.3223,0.3256,0,0.2459,0.2566,0.2624,0.2715,0.2766,0.2816,0.2857,0.2911,0.2974,0.3044,0.3092,0.3147,0.3151,0.3185,0.3227,0.3229,0.3276,0.3251,0.3166,0.3164,0.2968,0.3038,0.2826,0.2818,0.3262,0.3263,0.3264,0,0.2502,0.2568,0.2646,0.2734,0.2753,0.2807,0.2868,0.292,0.302,0.3064,0.3145,0.3184,0.3265,0.3259,0.3307,0.329,0.3298,0.3316,0.3314,0.3047,0.2958,0.2791,0.2813,0.3275,0.3274,0.3273,0.3272,0,0.2446,0.2581,0.2629,0.2672,0.2772,0.2801,0.2841,0.2927,0.2962,0.3101,0.3123,0.323,0.3238,0.3296,0.3294,0.3316,0.3331,0.3337,0.3163,0.3149,0.2911,0.287,0.3384,0.3384,0.3384,0.3384,0.3384,0,0.246,0.2521,0.2622,0.266,0.2692,0.277,0.2825,0.2886,0.2985,0.3014,0.3122,0.3145,0.3245,0.325,0.3303,0.3209,0.3304,0.3184,0.3135,0.2966,0.2932,0.3265,0.325,0.3385,0.3385,0.3385,0.3384,0,0.2422,0.2501,0.2552,0.2642,0.2679,0.2691,0.2789,0.2819,0.2915,0.2963,0.2994,0.3065,0.3055,0.3118,0.3184,0.3133,0.3139,0.3089,0.2883,0.2808,0.2985,0.298,0.2939,0.2931,0.2925,0.292,0.2915,0,0.242,0.2446,0.2504,0.2503,0.2559,0.2619,0.2636,0.2767,0.2816,0.2888,0.2883,0.2899,0.2855,0.2825,0.2814,0.2821,0.2959,0.2593,0.2583,0.2979,0.2938,0.2942,0.2946,0.2382,0.2374,0.2367,0.2361,0,0.2379,0.2384,0.2384,0.2429,0.2453,0.2484,0.256,0.2553,0.2671,0.2668,0.2644,0.2618,0.2574,0.2435,0.2397,0.2396,0.2577,0.2444,0.2904,0.2488,0.2444,0.2406,0.243,0.2299,0.2306,0.231,0.2313,0.2316,0.2292,0.2262,0.2287,0.2298,0.2337,0.2351,0.2295,0.2352,0.2342,0.2283,0.237,0.223,0.224,0.2046,0.1981,0.1952,0.2157,0.21,0.2127,0.216,0.2049,0.1991,0.1745,0.1748,0.175,0.1753,0.1755,0,0.2212,0.2197,0.2178,0.2168,0.2151,0.2259,0.2236,0.2123,0.1995,0.2006,0.1949,0.1727,0.1595,0.1638,0.1492,0.1463,0.1529,0.1411,0.1508,0.1568,0.1621,0.149,0.1034,0.1032,0.103,0.1029,0,0,0.2141,0.2099,0.2076,0.2009,0.2009,0.194,0.1858,0.1716,0.1683,0.1495,0.143,0.1509,0.1559,0.1278,0.1234,0.1109,0.1341,0.1061,0.1637,0.1811,0.1863,0.2009,0.1869,0,0,0,0,0]},{"header":{"parameterUnit":"m.s-1","parameterCategory":2,"la1":30.2991,"la2":30.254,"lo1":-89.0895,"lo2":-89.0444,"dy":0.0017,"dx":0.0017,"nx":28,"ny":28,"refTime":"2024-08-05T21:00:00:Z","depth":"2","parameterNumber":3,"parameterNumberName":"V-component_of_CURRENTS"},"data":[0,0,0,0,0,0,0,0,0,0,0,0,0,0,0,0,0,0,0,0,0,0,0,0,0,0,0,0,0,0,0,0,0,0,0,0,0,0,0,0,0,0,0,0,0,0,0,0,0,0,0,0,0,0,0,0,0,0,0.0379,0.0379,0,0.0366,0.0365,0.0364,0.0351,0.0352,0.0352,0.0352,0.0237,0.0234,0.0231,0,0,0,0,0,0,0,0,0,0,0,0,0,0.0218,0.0222,0.0379,0.0379,0.0379,0.0366,0.0365,0.0364,0.0351,0.0352,0.0352,0.0353,0.0238,0.0234,0.023,0,0,0,0,0,0,0,0,0,0,0,0,0,0.025,0.0223,0.0379,0.0376,0.0376,0.0366,0.0365,0.0364,0.0351,0.0352,0.0352,0.0353,0.024,0.0235,0.023,0.0187,0,0,0.0214,0.0212,0,0,0,0,0,0,0,0,0.0248,0.0255,0.0376,0.0376,0.0376,0.0366,0.0266,0.0302,0.0351,0.0354,0.0352,0.0353,0.0274,0.0266,0.0256,0.0182,0.0177,0.0214,0.0211,0.0208,0.0207,0,0,0,0,0,0,0,0.0246,0.0255,0.0368,0.0376,0.0376,0.0316,0.0322,0.0272,0.0305,0.0354,0.0355,0.0362,0.0273,0.0261,0.0253,0.0175,0.0214,0.0209,0.0206,0.0204,0.0103,0.0103,0,0,0,0,0,0,0.0269,0.0254,0.0368,0.0368,0.0319,0.0319,0.0326,0.0364,0.0308,0.0302,0.0362,0.0362,0.0269,0.0259,0.0249,0.0236,0.0208,0.0204,0.0201,0.0102,0.0103,0.0103,0,0,0,0,0,0,0.0266,0.0281,0.0369,0.0312,0.032,0.0323,0.0365,0.0363,0.0354,0.0316,0.0307,0.0356,0.0269,0.0256,0.0197,0.023,0.0201,0.0197,0.0102,0.0102,0.0103,0.0184,0,0,0,0,0,0,0.0262,0.028,0.0304,0.0316,0.0325,0.038,0.0365,0.0363,0.0361,0.0361,0.0307,0.0297,0.0269,0.0205,0.0192,0.0222,0.0193,0.0101,0.0102,0.0103,0.0181,0.0187,0.0193,0,0,0,0,0,0.0257,0.0309,0.0306,0.0319,0.0363,0.0382,0.038,0.0377,0.036,0.0367,0.0312,0.0299,0.0202,0.0199,0.0185,0.0215,0.0101,0.0102,0.0103,0.0178,0.0186,0.0193,0,0,0,0,0,0,0.0259,0.0313,0.031,0.0377,0.0381,0.0382,0.039,0.0376,0.0339,0.0327,0.0279,0.0265,0.0235,0.0201,0.02,0.0188,0.0159,0.0157,0.0222,0.0228,0.0234,0.0227,0.0188,0,0,0,0,0,0.0269,0.0317,0.0342,0.0388,0.0395,0.0383,0.0385,0.0381,0.0357,0.0342,0.0304,0.0261,0.0226,0.0207,0.0169,0.0142,0.012,0.0159,0.0165,0.0171,0.0155,0.016,0.0165,0.0106,0.0106,0.0106,0,0,0.0282,0.0315,0.0342,0.0388,0.0387,0.0404,0.0385,0.0397,0.0407,0.0331,0.0318,0.027,0.022,0.0203,0.0189,0.0179,0.0177,0.0172,0.0177,0.0157,0.0161,0.0167,0.0172,0.0106,0.0106,0.0106,0,0,0.0319,0.0359,0.0398,0.0403,0.0415,0.0418,0.0423,0.0421,0.0421,0.0393,0.035,0.0312,0.0258,0.0238,0.0218,0.0227,0.0205,0.0228,0.0255,0.0261,0.0267,0.0271,0.0259,0.0261,0.0237,0.0237,0.0237,0,0.0311,0.0387,0.0406,0.0428,0.0438,0.0428,0.0449,0.0452,0.0427,0.0433,0.0403,0.0333,0.0282,0.0272,0.0263,0.0244,0.023,0.0237,0.0271,0.0275,0.0277,0.0264,0.0266,0.0241,0.0241,0.024,0.024,0,0.0385,0.0414,0.0436,0.0469,0.0479,0.05,0.0509,0.0517,0.0505,0.0507,0.0492,0.0414,0.038,0.0367,0.03,0.0305,0.0282,0.0278,0.0258,0.0289,0.0272,0.0273,0.0247,0.0246,0.0244,0.0243,0,0,0.0426,0.0476,0.0477,0.0488,0.0502,0.0525,0.0549,0.0584,0.0592,0.0583,0.0597,0.0527,0.0491,0.0459,0.0398,0.0373,0.0365,0.032,0.0318,0.0316,0.0363,0.0335,0.0332,0.0371,0.0371,0.0372,0.0347,0,0.046,0.0527,0.0535,0.0568,0.0601,0.0591,0.0618,0.0641,0.0628,0.064,0.062,0.059,0.0534,0.0487,0.0471,0.0392,0.0367,0.037,0.0325,0.0322,0.0302,0.0332,0.0339,0.0317,0.0347,0.0347,0.0347,0,0.0523,0.0563,0.0619,0.0635,0.0646,0.0652,0.0681,0.0688,0.0709,0.0693,0.0686,0.0663,0.0641,0.0563,0.051,0.0516,0.0429,0.0366,0.0366,0.0304,0.0294,0.0287,0.0315,0.0347,0.0347,0.0347,0.0347,0,0.058,0.0609,0.0665,0.0671,0.07,0.0705,0.0703,0.071,0.0734,0.0703,0.0727,0.0709,0.0702,0.0631,0.0527,0.0514,0.0448,0.0438,0.0336,0.0334,0.0309,0.0303,0.037,0.037,0.037,0.0371,0.0371,0,0.0634,0.066,0.0688,0.0718,0.076,0.0739,0.0746,0.0739,0.0743,0.0788,0.075,0.0777,0.071,0.0689,0.0568,0.0473,0.0508,0.0333,0.0328,0.0337,0.0335,0.0331,0.0327,0.037,0.037,0.037,0.037,0,0.0682,0.0705,0.0765,0.0797,0.0787,0.0814,0.0789,0.0815,0.0787,0.0836,0.0848,0.0866,0.0827,0.0752,0.0622,0.0539,0.0422,0.0356,0.0358,0.0353,0.029,0.029,0.0274,0.0273,0.0272,0.0271,0.027,0,0.0721,0.0764,0.0825,0.0853,0.0852,0.0853,0.0872,0.0842,0.0864,0.0894,0.096,0.0945,0.0943,0.0784,0.0612,0.0442,0.0401,0.0308,0.0276,0.0284,0.0281,0.0283,0.0284,0.028,0.0279,0.0279,0.0278,0,0.0786,0.0813,0.087,0.09,0.0927,0.0963,0.0963,0.1018,0.1008,0.1053,0.1096,0.1087,0.0957,0.0802,0.0566,0.044,0.0349,0.0293,0.0325,0.0299,0.0287,0.0285,0.0287,0.0275,0.0275,0.0275,0.0275,0.0276,0.083,0.0874,0.0909,0.0943,0.099,0.1044,0.1051,0.1092,0.1138,0.1179,0.118,0.113,0.0986,0.068,0.0498,0.0303,0.0315,0.0226,0.0229,0.0232,0.0233,0.022,0.0194,0.0194,0.0194,0.0194,0.0194,0,0.0833,0.0862,0.092,0.0968,0.1015,0.1011,0.1095,0.1102,0.1155,0.1208,0.1192,0.1014,0.0851,0.0673,0.0389,0.0222,0.021,0.0156,0.0187,0.0192,0.0197,0.0197,0.0147,0.0146,0.0146,0.0145,0,0,0.0843,0.0866,0.0895,0.0945,0.0975,0.0992,0.104,0.1089,0.1113,0.1125,0.109,0.1064,0.0882,0.0665,0.0464,0.0303,0.0273,0.0258,0.0313,0.0379,0.0384,0.0256,0.0264,0,0,0,0,0]}],[{"header":{"parameterUnit":"m.s-1","parameterCategory":2,"la1":30.2991,"la2":30.254,"lo1":-89.0895,"lo2":-89.0444,"dy":0.0017,"dx":0.0017,"nx":28,"ny":28,"refTime":"2024-08-05T21:00:00:Z","depth":"4","parameterNumber":2,"parameterNumberName":"U-component_of_CURRENTS"},"data":[0,0,0,0,0,0,0,0,0,0,0,0,0,0,0,0,0,0,0,0,0,0,0,0,0,0,0,0,0,0,0,0,0,0,0,0,0,0,0,0,0,0,0,0,0,0,0,0,0,0,0,0,0,0,0,0,0,0,0.0466,0.0466,0,0.047,0.0471,0.0472,0.0587,0.059,0.0592,0.0594,0.0801,0.0804,0.0808,0,0,0,0,0,0,0,0,0,0,0,0,0,0.0577,0.0575,0.0466,0.0466,0.0465,0.047,0.0471,0.0472,0.0587,0.059,0.0592,0.0595,0.08,0.0804,0.0808,0,0,0,0,0,0,0,0,0,0,0,0,0,0.0557,0.0574,0.0467,0.0518,0.0522,0.047,0.0471,0.0472,0.0586,0.059,0.0593,0.0596,0.0799,0.0804,0.0809,0.0771,0,0,0.0824,0.0826,0,0,0,0,0,0,0,0,0.0558,0.0554,0.0511,0.0514,0.0518,0.0525,0.0585,0.0579,0.0585,0.057,0.0594,0.0598,0.072,0.0732,0.0733,0.0781,0.0789,0.0824,0.0827,0.083,0.0831,0,0,0,0,0,0,0,0.0559,0.0554,0.0476,0.051,0.0514,0.0546,0.0548,0.0585,0.0635,0.0571,0.0578,0.0565,0.0725,0.0727,0.0739,0.0793,0.0824,0.0829,0.0832,0.0834,0.0982,0.0983,0,0,0,0,0,0,0.0538,0.0554,0.0476,0.0475,0.0538,0.054,0.0543,0.0526,0.0631,0.0646,0.0562,0.057,0.0717,0.0733,0.0747,0.0856,0.083,0.0834,0.0837,0.0981,0.0982,0.0983,0,0,0,0,0,0,0.054,0.053,0.0475,0.051,0.0504,0.0534,0.0515,0.0524,0.0556,0.062,0.0642,0.0588,0.072,0.074,0.083,0.086,0.0837,0.0841,0.098,0.0981,0.0983,0.0981,0,0,0,0,0,0,0.0543,0.0531,0.0524,0.0508,0.0501,0.0468,0.0511,0.0521,0.0537,0.055,0.0648,0.0669,0.0725,0.0822,0.0835,0.0867,0.0845,0.0979,0.0981,0.0982,0.098,0.0982,0.0984,0,0,0,0,0,0.0547,0.0523,0.0524,0.0515,0.0486,0.0467,0.0468,0.0506,0.0535,0.0549,0.0634,0.0668,0.0842,0.0827,0.0842,0.0876,0.0978,0.098,0.0982,0.0979,0.0982,0.0984,0,0,0,0,0,0,0.0548,0.0531,0.0532,0.0499,0.0491,0.0484,0.0494,0.0506,0.0574,0.0604,0.0678,0.0705,0.0795,0.0826,0.0807,0.0922,0.0915,0.092,0.0907,0.091,0.0912,0.0938,0.0849,0,0,0,0,0,0.0541,0.0535,0.0511,0.0483,0.0485,0.0488,0.0488,0.0506,0.0547,0.058,0.0643,0.0722,0.0802,0.0852,0.0913,0.0968,0.0996,0.0999,0.1001,0.1002,0.1033,0.1107,0.1118,0.099,0.099,0.099,0,0,0.0534,0.0517,0.0516,0.0486,0.049,0.0491,0.0502,0.0501,0.0526,0.0591,0.0667,0.0729,0.0817,0.0897,0.0939,0.0937,0.1042,0.1005,0.1006,0.1037,0.111,0.1123,0.1134,0.0991,0.0991,0.0991,0,0,0.0512,0.0503,0.0501,0.0495,0.0486,0.0495,0.0496,0.0501,0.0542,0.0586,0.0665,0.0742,0.0831,0.0914,0.0966,0.1006,0.1048,0.1028,0.1069,0.1139,0.115,0.1161,0.1162,0.1173,0.1033,0.1033,0.1033,0,0.0528,0.0484,0.0494,0.0484,0.0486,0.0501,0.0502,0.0532,0.0568,0.0616,0.0618,0.0781,0.0839,0.0975,0.1008,0.1012,0.1051,0.1052,0.1143,0.1154,0.1166,0.1165,0.1177,0.1033,0.1033,0.1033,0.1033,0,0.0491,0.0472,0.0468,0.0477,0.0489,0.0481,0.0516,0.0564,0.06,0.0624,0.074,0.0812,0.0924,0.0942,0.1,0.1124,0.112,0.1131,0.1136,0.1179,0.1174,0.1186,0.1033,0.1033,0.1033,0.1033,0,0,0.0514,0.0462,0.0467,0.0465,0.0483,0.049,0.0561,0.0623,0.0701,0.0728,0.0814,0.0932,0.0975,0.1039,0.1107,0.1173,0.1255,0.1207,0.121,0.1206,0.1388,0.1271,0.1273,0.1306,0.131,0.1312,0.1333,0,0.05,0.0461,0.0457,0.0462,0.0454,0.0516,0.0592,0.0662,0.0729,0.0817,0.0889,0.0992,0.1011,0.1089,0.1156,0.1262,0.1301,0.1247,0.1351,0.1353,0.1244,0.1289,0.1324,0.1343,0.1346,0.1348,0.135,0,0.0474,0.0451,0.0438,0.0465,0.0481,0.0518,0.0665,0.0727,0.0866,0.0928,0.1028,0.108,0.1213,0.1195,0.136,0.1342,0.1375,0.141,0.1412,0.1326,0.1262,0.1306,0.1373,0.1371,0.137,0.1368,0.1366,0,0.0475,0.0448,0.0439,0.0439,0.0486,0.0553,0.0622,0.077,0.0861,0.1012,0.1095,0.1209,0.1307,0.1376,0.1443,0.1438,0.1576,0.1558,0.1456,0.1445,0.1543,0.1532,0.1643,0.1643,0.1643,0.1643,0.1642,0,0.0454,0.0444,0.044,0.0444,0.0511,0.0555,0.067,0.0798,0.0943,0.1046,0.1162,0.1256,0.1377,0.1451,0.1473,0.1503,0.1594,0.148,0.1465,0.1531,0.1519,0.1548,0.1537,0.1643,0.1643,0.1643,0.1643,0,0.0444,0.0422,0.0429,0.0482,0.0507,0.0575,0.0694,0.0781,0.0956,0.11,0.1158,0.1338,0.145,0.1504,0.1608,0.1553,0.1572,0.1544,0.1578,0.1561,0.1375,0.1363,0.144,0.1437,0.1434,0.1431,0.1429,0,0.0401,0.0406,0.0473,0.0492,0.0517,0.0586,0.0651,0.0797,0.0878,0.1123,0.1188,0.1354,0.1439,0.1486,0.1541,0.154,0.1521,0.1493,0.1468,0.1388,0.1365,0.1358,0.1351,0.1424,0.1424,0.1423,0.1422,0,0.0367,0.0428,0.0459,0.0496,0.0545,0.0596,0.0684,0.0742,0.0912,0.1054,0.1203,0.1266,0.1377,0.1424,0.1442,0.143,0.1499,0.1462,0.1468,0.1444,0.137,0.1349,0.1345,0.1412,0.1413,0.1414,0.1415,0,0.0374,0.0403,0.0456,0.0508,0.0558,0.0616,0.0647,0.0719,0.0821,0.1069,0.1082,0.1251,0.1359,0.1365,0.1367,0.1367,0.1346,0.1285,0.13,0.1312,0.126,0.1146,0.1125,0,0,0,0,0,0.0372,0.0409,0.0442,0.0499,0.0549,0.0594,0.0681,0.0704,0.0831,0.0915,0.1007,0.109,0.1163,0.1225,0.1201,0.1291,0.1335,0.1252,0.1268,0.1355,0.1367,0.1318,0,0,0,0,0,0,0.0371,0.0396,0.0438,0.0484,0.0526,0.0573,0.0645,0.0716,0.0751,0.0884,0.093,0.1016,0.1098,0.1188,0.119,0.1201,0.1181,0.1325,0.1321,0.1349,0.136,0.1369,0.1323,0,0,0,0,0]},{"header":{"parameterUnit":"m.s-1","parameterCategory":2,"la1":30.2991,"la2":30.254,"lo1":-89.0895,"lo2":-89.0444,"dy":0.0017,"dx":0.0017,"nx":28,"ny":28,"refTime":"2024-08-05T21:00:00:Z","depth":"4","parameterNumber":3,"parameterNumberName":"V-component_of_CURRENTS"},"data":[0,0,0,0,0,0,0,0,0,0,0,0,0,0,0,0,0,0,0,0,0,0,0,0,0,0,0,0,0,0,0,0,0,0,0,0,0,0,0,0,0,0,0,0,0,0,0,0,0,0,0,0,0,0,0,0,0,0,0.0354,0.0355,0,0.0388,0.0388,0.0388,0.0381,0.0381,0.0381,0.0381,0.0317,0.0315,0.0313,0,0,0,0,0,0,0,0,0,0,0,0,0,0.0315,0.0315,0.0354,0.0355,0.0356,0.0388,0.0388,0.0388,0.0381,0.0381,0.0381,0.0381,0.0317,0.0315,0.0313,0,0,0,0,0,0,0,0,0,0,0,0,0,0.0332,0.0315,0.0354,0.0362,0.0363,0.0388,0.0388,0.0388,0.0381,0.0381,0.0381,0.0381,0.0318,0.0315,0.0313,0.0296,0,0,0.0305,0.0304,0,0,0,0,0,0,0,0,0.0331,0.0333,0.0359,0.0361,0.0363,0.0386,0.0352,0.0355,0.0381,0.0366,0.0381,0.0381,0.0335,0.0331,0.0329,0.0293,0.029,0.0305,0.0303,0.0302,0.0301,0,0,0,0,0,0,0,0.033,0.0332,0.036,0.0361,0.0363,0.0376,0.0377,0.0352,0.0343,0.0368,0.0369,0.0384,0.0335,0.0332,0.0327,0.0289,0.0305,0.0302,0.0301,0.03,0.0223,0.0223,0,0,0,0,0,0,0.0338,0.033,0.0359,0.0362,0.0355,0.0377,0.0378,0.0373,0.0345,0.0344,0.0384,0.0384,0.0336,0.033,0.0325,0.032,0.0302,0.0299,0.0298,0.0224,0.0223,0.0223,0,0,0,0,0,0,0.0337,0.034,0.0358,0.0354,0.0358,0.0378,0.0372,0.0374,0.0385,0.036,0.0356,0.0396,0.0336,0.0329,0.0308,0.0317,0.0298,0.0296,0.0224,0.0224,0.0223,0.03,0,0,0,0,0,0,0.0335,0.0338,0.0338,0.0354,0.0359,0.0378,0.0373,0.0375,0.0397,0.0397,0.0369,0.0362,0.0335,0.0312,0.0306,0.0313,0.0294,0.0225,0.0224,0.0223,0.0298,0.0302,0.0305,0,0,0,0,0,0.0333,0.0338,0.0337,0.0341,0.0356,0.0379,0.0382,0.0392,0.0398,0.0401,0.0381,0.0364,0.0301,0.031,0.0302,0.0309,0.0225,0.0224,0.0223,0.0296,0.0301,0.0305,0,0,0,0,0,0,0.0321,0.0339,0.0338,0.0346,0.0364,0.0381,0.0396,0.0403,0.0392,0.0393,0.0363,0.0355,0.034,0.0308,0.0319,0.028,0.0258,0.0255,0.0316,0.032,0.0324,0.0341,0.0292,0,0,0,0,0,0.0319,0.0331,0.0344,0.0357,0.0365,0.0382,0.0395,0.0402,0.0402,0.0399,0.0384,0.0355,0.0327,0.0313,0.0284,0.0267,0.0229,0.0261,0.0265,0.0268,0.0274,0.0209,0.0208,0.0219,0.0219,0.0219,0,0,0.0334,0.0337,0.0352,0.0358,0.0372,0.039,0.0388,0.0415,0.043,0.0391,0.0401,0.0372,0.0325,0.0307,0.0296,0.0284,0.0248,0.0267,0.0271,0.0275,0.0208,0.0207,0.0206,0.0218,0.0219,0.0219,0,0,0.0364,0.0356,0.0375,0.0381,0.0403,0.041,0.0422,0.044,0.0445,0.0447,0.0422,0.0395,0.0365,0.033,0.0307,0.0308,0.0273,0.0303,0.0336,0.0274,0.0273,0.0271,0.0242,0.0237,0.0302,0.0302,0.0302,0,0.0371,0.039,0.0388,0.0397,0.0413,0.0422,0.0445,0.045,0.0462,0.0459,0.0457,0.0405,0.037,0.0337,0.0343,0.0318,0.0291,0.033,0.028,0.0278,0.0275,0.0245,0.0239,0.0306,0.0305,0.0305,0.0304,0,0.041,0.0424,0.0438,0.0448,0.0459,0.0485,0.049,0.0503,0.0511,0.0505,0.0487,0.0443,0.0412,0.0394,0.0375,0.0342,0.0334,0.0298,0.0277,0.0279,0.0247,0.0239,0.0311,0.0309,0.0308,0.0308,0,0,0.0429,0.0459,0.0464,0.0476,0.0487,0.0501,0.0523,0.0535,0.0548,0.0536,0.0533,0.0491,0.0474,0.0447,0.0415,0.0365,0.0331,0.0339,0.0334,0.0325,0.0224,0.0233,0.0226,0.0293,0.0292,0.0291,0.0217,0,0.0462,0.0495,0.0499,0.0538,0.0558,0.0559,0.0585,0.0588,0.0581,0.0575,0.0523,0.0507,0.0492,0.0484,0.0436,0.0357,0.0312,0.0357,0.0209,0.0206,0.0225,0.0216,0.0286,0.0211,0.0209,0.0208,0.0207,0,0.0495,0.0511,0.0559,0.0586,0.0595,0.0623,0.0647,0.067,0.0651,0.0641,0.0611,0.0567,0.0517,0.0488,0.0373,0.0409,0.0332,0.0263,0.0257,0.0233,0.02,0.0199,0.0192,0.0194,0.0195,0.0196,0.0197,0,0.0515,0.0549,0.0592,0.0599,0.0635,0.0662,0.0692,0.0697,0.0715,0.0687,0.0678,0.0607,0.0578,0.0472,0.0361,0.0365,0.0214,0.0189,0.0122,0.0123,0.0104,0.0106,0.0085,0.0085,0.0085,0.0086,0.0086,0,0.0542,0.0569,0.0613,0.0634,0.0688,0.0704,0.0747,0.077,0.0781,0.078,0.073,0.0694,0.0571,0.0471,0.0364,0.0237,0.0217,0.0132,0.0098,0.014,0.0147,0.01,0.0102,0.0083,0.0083,0.0084,0.0085,0,0.0558,0.059,0.0629,0.068,0.0706,0.0747,0.0801,0.0823,0.0848,0.0843,0.0838,0.076,0.0642,0.0513,0.0326,0.025,0.011,0.0059,0.0142,0.0113,0.0063,0.007,-0.0012,-0.0012,-0.0013,-0.0013,-0.0013,0,0.056,0.0596,0.0662,0.0693,0.0724,0.078,0.0824,0.0866,0.0879,0.0863,0.0856,0.076,0.0681,0.045,0.0311,0.0123,0.0086,0.0028,0.0029,0.0075,0.005,0.0058,0.0065,-0.0014,-0.0014,-0.0014,-0.0014,0,0.0561,0.0599,0.063,0.0708,0.0761,0.0802,0.0864,0.0876,0.0904,0.0916,0.085,0.0735,0.0601,0.0434,0.0301,0.0153,0.0076,0.0023,0.0023,0.0023,0.0072,0.0049,0.0057,-0.0015,-0.0015,-0.0015,-0.0015,0,0.0552,0.0577,0.0639,0.0701,0.0764,0.0813,0.0837,0.0849,0.0874,0.0872,0.0829,0.0701,0.0631,0.0446,0.0305,0.019,0.0153,0.0106,0.01,0.01,0.0157,0.0236,0.0171,0,0,0,0,0,0.0547,0.0581,0.0628,0.0685,0.0743,0.0791,0.0857,0.0872,0.0887,0.0848,0.0851,0.0721,0.0531,0.0442,0.0326,0.0291,0.0131,0.015,0.0073,-0.0022,-0.0021,0.0027,0,0,0,0,0,0,0.0539,0.0586,0.0616,0.066,0.0698,0.0761,0.0807,0.0822,0.0801,0.0803,0.0704,0.068,0.0498,0.0592,0.0316,0.0282,0.0215,0.0074,0.0071,-0.0023,-0.0022,-0.0021,0.0029,0,0,0,0,0]}]]